Regional Weather Roundup
Issued by NWS

Home | Current Version | Previous Version | Text Only | Print | Product List | Glossary Off
Versions: 1 2 3 4 5 6 7 8 9 10 11 12 13 14 15 16 17 18 19 20 21 22 23 24 25 26 27 28 29 30 31 32 33 34 35 36 37 38 39 40 41 42 43 44 45 46 47 48 49 50

000
ASUS43 KLOT 251508
RWRIL

ILLINOIS REGIONAL WEATHER ROUNDUP
NATIONAL WEATHER SERVICE CHICAGO/ROMEOVILLE IL
1000 AM CDT SUN SEP 25 2016

NOTE: "FAIR" INDICATES FEW OR NO CLOUDS BELOW 12,000 FEET WITH NO
SIGNIFICANT WEATHER AND/OR OBSTRUCTIONS TO VISIBILITY.

* THESE STATIONS ARE NOT UNDER NWS QUALITY CONTROL. THEY ALSO MAY NOT
  REPORT WEATHER SUCH AS PRECIPITATION OR FOG.

ILZ001-002-007-009-015-016-024-251600-
NORTHWEST ILLINOIS

CITY           SKY/WX    TMP DP  RH WIND       PRES   REMARKS
MOLINE         SUNNY     78  68  71 SW10      30.00R HX  80
STERLING*      CLOUDY    76  69  79 SE6       30.02S
SAVANNA*       MOSUNNY   75  68  78 SE12G17   29.98F
$$

ILZ003-004-008-010-011-017-018-251600-
NORTH CENTRAL ILLINOIS

CITY           SKY/WX    TMP DP  RH WIND       PRES   REMARKS
ROCKFORD       CLOUDY    72  65  78 S13       30.04F
FREEPORT*      MOSUNNY   73  67  81 S12       30.03F
ROCHELLE*      MOSUNNY   72  66  81 S13       30.04F
DE KALB*       CLOUDY    71  65  83 SE14      30.06F
$$

ILZ005-006-012>014-019>023-251600-
NORTHEAST ILLINOIS

CITY           SKY/WX    TMP DP  RH WIND       PRES   REMARKS
CHICAGO-OHARE  PTSUNNY   70  61  73 S8        30.07F
CHICAGO-MIDWAY MOSUNNY   71  59  65 S8        30.07F
AURORA         SUNNY     73  64  73 S9        30.07S
LANSING*       MOSUNNY   70  62  75 SE9       30.09S
JOLIET*        SUNNY     73  65  76 S10       30.07F
WAUKEGAN       SUNNY     69  60  73 S12       30.06F
DUPAGE AIRPORT SUNNY     71  62  73 S10       30.07R
KANKAKEE*      SUNNY     74  64  71 S8        30.09S
WHEELING       SUNNY     70  60  70 S12       30.08F
MORRIS*        SUNNY     74  64  70 S6        30.05F
ROMEOVILLE*    SUNNY     72  65  80 S10       30.07F
NORTHERLY ISL    N/A     71  58  63 S2          N/A
$$

LMZ740>746-251600-
SOUTHERN LAKE MICHIGAN

STATION/POSITION SKY/WX   TEMP    WIND        PRES    VSBY  WAVE
                          AIR SEA DIR/SP/G                  HT/PER
                          (F)     (DEG/KT/KT) (MB)    (MI)  (FT/S)
SOUTHERN BUOY              67 72  140/ 19/ 23 1018.2F         5/ 5
WILMETTE HARBOR            66 63  180/ 12/ 16   N/A           4/ 4
HARRISON CRIB              67     150/ 15/ 18   N/A
BURNHAM HARBOR             72     140/  5/  8   N/A
CALUMET HARBOR             66     140/  8/ 11 1018.4F
BURNS HARBOR               67     170/ 10/ 21 1019.6S
MICHIGAN CITY              64     120/ 11/ 13   N/A
MICHIGAN CITY 6N           66 68  140/ 10/ 12   N/A           1/ 2
ST. JOSEPH                 65 68  120/ 12/ 16 1019.4F         1/ 2
$$

ILZ025>027-034>036-040-047-049-050-058-095>099-251600-
WEST-CENTRAL ILLINOIS

CITY           SKY/WX    TMP DP  RH WIND       PRES   REMARKS
QUINCY         MOSUNNY   76  69  79 SW12      30.04R HAZE
GALESBURG*     SUNNY     77  68  73 S8        30.01S
MACOMB*        MOSUNNY   80  69  69 SW8G18    30.04R HX  82
JACKSONVILLE*  PTSUNNY   83  68  61 SW9       30.04R HX  85
PITTSFIELD*    MOSUNNY   80  71  74 SW6       30.05S HX  83
$$

ILZ028>032-037-038-041>044-048-051>054-059>061-251600-
CENTRAL ILLINOIS

CITY           SKY/WX    TMP DP  RH WIND       PRES   REMARKS
PONTIAC        SUNNY     77  71  80 S10       30.07S
BLOOMINGTON    SUNNY     77  69  76 S12       30.08S
DECATUR        MOSUNNY   79  70  74 S8        30.07F HX  82
PEORIA         PTSUNNY   78  69  73 S12       30.03F HX  80
LACON*           N/A     78  68  70 S8        30.02F HAZE    HX  80
LINCOLN*       MOSUNNY   81  70  69 S8        30.05S HX  84
SPRINGFIELD    MOSUNNY   82  68  62 S8        30.05S HX  85
TAYLORVILLE    SUNNY     82  68  61 S12       30.07R HX  85
$$

ILZ033-039-045-046-055>057-062-063-251600-
EAST-CENTRAL ILLINOIS

CITY           SKY/WX    TMP DP  RH WIND       PRES   REMARKS
CHAMPAIGN      SUNNY     79  68  69 SE8       30.09S HX  81
RANTOUL*       SUNNY     78  70  74 S7        30.09S HX  81
MATTOON        SUNNY     77  68  73 S8        30.08S
PARIS*         SUNNY     78  69  73 S5        30.11R HX  81
$$

ILZ079-100>102-251600-
SOUTHWEST ILLINOIS

CITY           SKY/WX    TMP DP  RH WIND       PRES   REMARKS
ALTON          MOSUNNY   81  70  69 S8        30.06S HX  84
BELLEVILLE     SUNNY     83  69  64 SW10      30.06S HX  86
CAHOKIA*       SUNNY     82  67  60 S6        30.05F HX  84
SPARTA*        MOSUNNY   79  70  73 SW9       30.09S HX  81
$$

ILZ064>066-069>071-074>076-080>082-084>086-088>090-092>094-251600-
SOUTH-CENTRAL ILLINOIS

CITY           SKY/WX    TMP DP  RH WIND       PRES   REMARKS
CARBONDALE     PTSUNNY   79  72  79 S5        30.08S HX  82
CAIRO*         SUNNY     81  68  65 CALM      30.09R HX  84
EFFINGHAM*     MOSUNNY   79  72  80 S3        30.10S HX  81
MARION         SUNNY     82  72  69 S6        30.10R HX  87
MT. VERNON     SUNNY     81  70  69 CALM      30.10S HX  84
CENTRALIA*     SUNNY     82  72  70 SW8       30.07F HX  87
SALEM*         SUNNY     81  70  69 S3        30.08F HX  84
METROPOLIS*    SUNNY     82  70  68 CALM      30.09S HX  85
$$

ILZ067-068-072-073-078-083-087-091-251600-
SOUTHEAST ILLINOIS

CITY           SKY/WX    TMP DP  RH WIND       PRES   REMARKS
LAWRENCEVILLE  SUNNY     80  68  66 SE6       30.10S HX  83
FLORA*         SUNNY     80  71  71 S3        30.09S HX  84
FAIRFIELD*     SUNNY     81  69  67 SW3       30.08S HX  84
HARRISBURG*    SUNNY     81  70  69 CALM      30.09S HX  84
ROBINSON*      SUNNY     74  71  88 SE7       30.11S
CARMI*         SUNNY     81  70  68 SE6       30.08S HX  85
$$

ABBREVIATIONS USED IN REMARKS
   TC - TEMPERATURE IN CELSIUS
  WCI - WIND CHILL INDEX
   HX - HEAT INDEX
  VSB - VISIBILITY
$$





USA.gov is the U.S. government's official web portal to all federal, state and local government web resources and services.